Find Starlink 32270

NORAD ID: 60364 Int'l Des: 2024-138 Owner: SPXS Country: US Constellation: starlink operational
LEOCIRCULAR

Current View

Loading 3D Globe...

About Starlink 32270

Starlink 32270 (NORAD 60364) is a starlink constellation satellite (v2 mini) launched Aug 4, 2024 by SPXS of US. It operates in LEO, CIRCULAR orbit with a mass of 730.00 kg.

Upcoming Passes

Passes for default location (London). Set your location on the main map for personalized predictions.

Altitude History

Loading altitude history...

Two-Line Element Set

1 60364U 24138K 26257.72572756 .00015588 00000-0 51387-3 0 9994
2 60364 53.1603 150.5749 0001210 112.7879 247.3250 15.31646015119487
Epoch: Sep 14, 2026 • Age: 15 hours

Current Status

Altitude 473.4 km
Apogee / Perigee N/A
Velocity 7.63 km/s
Sub-Earth Point -10.03°S, 144.29°W
Launch Date Aug 4, 2024
Age 2.1 years
Type internet

Technical Details

Classification Payload
Mass 730.00 kg
Dry Mass 700.00 kg
Length 0.30 m
Span 29.00 m
Shape ? Box + pan
Manufacturer SPXS
Bus Type Starlink V2M
Phase Status In Orbit
Owner/State SPXS/US

Most Searched